This is the latest recevied weather packets stored in our database for station/object EFOU. If no packets are shown the sender has not sent any weather packets the latest 10 day(s).
| Time | Temp. | Humidity | Pressure | Rain* | Wind** | Luminosity | Snow |
|---|---|---|---|---|---|---|---|
| 1778083639 | 5.56° C | 73% | 1010.8 hPa | - | - | - | - |
| 1778082439 | 5.56° C | 74% | 1010.7 hPa | - | - | - | - |
| 1778081239 | 5.56° C | 73% | 1010.6 hPa | - | - | - | - |
| 1778080039 | 5.56° C | 74% | 1010.4 hPa | - | - | - | - |
| 1778078839 | 6.67° C | 68% | 1010.1 hPa | - | - | - | - |
| 1778077639 | 6.11° C | 63% | 1010 hPa | - | - | - | - |
| 1778076439 | 6.11° C | 66% | 1009.9 hPa | - | - | - | - |
| 1778075239 | 5.56° C | 66% | 1009.7 hPa | - | - | - | - |
| 1778074039 | 6.11° C | 70% | 1009.4 hPa | - | - | - | - |
| 1778072838 | 5° C | 76% | 1009.2 hPa | - | - | - | - |
| 1778071638 | 5° C | 77% | 1009 hPa | - | - | - | - |
| 1778070438 | 5° C | 78% | 1008.7 hPa | - | - | - | - |
| 1778069238 | 5° C | 81% | 1008.6 hPa | - | - | - | - |
| 1778068039 | 4.44° C | 84% | 1008.1 hPa | - | - | - | - |
| 1778066839 | 4.44° C | 86% | 1007.9 hPa | - | - | - | - |
| 1778065638 | 4.44° C | 86% | 1007.7 hPa | - | - | - | - |
| 1778064438 | 3.89° C | 91% | 1007.4 hPa | - | - | - | - |
| 1778063238 | 3.89° C | 90% | 1007.1 hPa | - | - | - | - |
| 1778062040 | 4.44° C | 91% | 1006.8 hPa | - | - | - | - |
| 1778060838 | 3.89° C | 91% | 1006.5 hPa | - | - | - | - |
| 1778059638 | 3.33° C | 93% | 1006.2 hPa | - | - | - | - |
| 1778058438 | 2.78° C | 93% | 1006 hPa | - | - | - | - |
| 1778057238 | 2.78° C | 95% | 1005.8 hPa | - | - | - | - |
| 1778056038 | 2.78° C | 94% | 1005.5 hPa | - | - | - | - |
| 1778054838 | 2.78° C | 93% | 1005.2 hPa | - | - | - | - |
* Rain since midnight (hover to see other rain measurements)
** Current wind speed in m/s (hover to see current wind gust speed)